Content
SEND FEEDBACK

Daily
Averages
Monthly
Summary
United States of America

UMATAC, GUAM


Home > North America > United States > Guam
Elevation: 58 meters     Latitude: 13 17N     Longitude: 144 40E

WEATHER
 
SELECT A DAY
Number of Records: 350,330;   Date Range: 1/1/95 - 10/1/14
 
SHARE

PRINT THIS DATA

[ ← Previous Day ]
WEATHER ALMANAC - 25 AUGUST, 2014
[ Next Day → ]
[ °F ]   °C
Weather ElementAverageHighLow
Temperature25.7 °C28.5 °C (4:58 pm)23.3 °C (7:58 pm)
Dewpoint24.2 °C26 °C (8:53 am)20.2 °C (7:58 pm)
Humidity91.2 %100 % (6:08 am)81 % (3:58 pm)
Barometer1010.8 hPa1012.5 hPa (12:13 am)1007.1 hPa (3:58 am)
Wind Speed12.4 km/h27.8 km/h (1:32 pm)
Weather ElementAverage
Visibility11.9 km
Wind DirectionSSE (150.3 °)

Weather ElementTotal
Precipitation32.77 mm
Cooling Degree Days7.6 (Base 18.3)
Growing Degree Days15.9 (Base 10)
Averaged from 73 records on 25 August, 2014
WEATHER CONDITIONS BREAKOUT
WIND DIRECTION BREAKOUT
WEATHER BY HOUR - 25 AUGUST, 2014
[ °F ]   °C
Local TimeTemperatureDewpointHumidityBarometerVisibilityWind DirectionWind SpeedGust SpeedPrecipitationEventsConditions
12:58 AM27.1 °C25 °C88 %1011.2 hPa16.1 kmNE (50°)13 km/hScattered Clouds
1:03 AM27 °C25 °C89 %1011.9 hPa16.1 kmENE (60°)11.1 km/hMostly Cloudy
1:08 AM27 °C25 °C89 %1011.5 hPa16.1 kmENE (60°)14.8 km/hScattered Clouds
1:55 AM27 °C24 °C84 %1011.5 hPa16.1 kmNNE (30°)14.8 km/hRainLight Rain
1:58 AM27 °C24 °C84 %1010.5 hPa16.1 kmNNE (30°)13 km/hRainLight Rain
2:06 AM26 °C24 °C89 %1011.5 hPa16.1 kmNE (50°)9.3 km/hPartly Cloudy
2:39 AM26 °C24 °C89 %1010.8 hPa16.1 kmEast (80°)3.7 km/hLight Drizzle
2:58 AM26.4 °C24.2 °C88 %1009.8 hPa9.7 kmEast (100°)11.1 km/h0 mmRainLight Rain
3:13 AM26 °C25 °C94 %1010.8 hPa3.2 kmESE (110°)13 km/hRainHeavy Rain
3:18 AM26 °C25 °C94 %1010.8 hPa2.9 kmEast (90°)13 km/hRainLight Rain
3:23 AM26 °C24 °C89 %1010.8 hPa4 kmESE (110°)7.4 km/hRainHeavy Rain
3:28 AM25 °C24 °C94 %1010.8 hPa8 kmESE (110°)5.6 km/hRainLight Rain
3:31 AM25 °C24 °C94 %1010.8 hPa16.1 kmESE (120°)3.7 km/hRain-ThunderstormLight Thunderstorms and Rain
3:32 AM25 °C24 °C94 %1010.8 hPa16.1 kmESE (120°)5.6 km/hThunderstormThunderstorm
3:37 AM26 °C24 °C89 %1010.8 hPa16.1 kmSE (140°)5.6 km/hThunderstormThunderstorm
3:46 AM26 °C25 °C94 %1010.8 hPa16.1 kmSE (140°)3.7 km/hPartly Cloudy
3:58 AM25.6 °C24.6 °C94 %1009.5 hPa16.1 kmSSE (160°)5.6 km/h4.57 mmClear
4:58 AM24.9 °C24.2 °C96 %1009.5 hPa16.1 kmNW (310°)7.4 km/hClear
5:58 AM25 °C24.4 °C96 %1009.8 hPa16.1 kmCalmClear
5:59 AM25 °C24 °C94 %1010.8 hPa16.1 kmCalmThunderstormThunderstorm
6:00 AM25 °C24 °C94 %1010.8 hPa16.1 kmWNW (300°)1.9 km/hRain-ThunderstormLight Thunderstorms and Rain
6:14 AM25 °C25 °C100 %1010.5 hPa16.1 kmWest (260°)7.4 km/hRain-ThunderstormLight Rain
6:24 AM25 °C25 °C100 %1011.2 hPa4 kmNW (320°)9.3 km/hRainLight Rain
6:25 AM25 °C25 °C100 %1011.2 hPa4 kmNNW (330°)9.3 km/hRain-ThunderstormThunderstorms and Rain
6:35 AM25 °C24 °C94 %1011.5 hPa1.6 kmNorth (10°)14.8 km/hRain-ThunderstormHeavy Thunderstorms and Rain
6:40 AM25 °C24 °C94 %1011.9 hPa0.8 kmNNW (330°)9.3 km/hFog-Rain-ThunderstormHeavy Thunderstorms and Rain
6:45 AM25 °C24 °C94 %1011.9 hPa0.8 kmWNW (300°)7.4 km/hFog-Rain-ThunderstormHeavy Thunderstorms and Rain
6:50 AM25 °C24 °C94 %1011.9 hPa1.3 kmWest (270°)5.6 km/hRain-ThunderstormHeavy Thunderstorms and Rain
6:55 AM25 °C24 °C94 %1012.2 hPa1.6 kmWNW (300°)16.7 km/hRain-ThunderstormThunderstorms and Rain
6:58 AM25 °C24 °C94 %1011.5 hPa1.3 kmNW (310°)13 km/h13.97 mmRain-ThunderstormHeavy Thunderstorms and Rain
7:03 AM24 °C23 °C94 %1012.5 hPa0.8 kmWNW (300°)11.1 km/hFog-Rain-ThunderstormHeavy Thunderstorms and Rain
7:08 AM24 °C23 °C94 %1012.5 hPa0.8 kmWest (280°)14.8 km/hFog-Rain-ThunderstormHeavy Thunderstorms and Rain
7:13 AM24 °C23 °C94 %1012.5 hPa1.6 kmWest (270°)16.7 km/hRain-ThunderstormLight Thunderstorms and Rain
7:18 AM24 °C23 °C94 %1012.5 hPa11.3 kmWSW (240°)11.1 km/hRain-ThunderstormLight Thunderstorms and Rain
7:23 AM24 °C23 °C94 %1012.5 hPa12.9 kmWSW (240°)13 km/hRain-ThunderstormLight Thunderstorms and Rain
7:33 AM24 °C23 °C94 %1012.5 hPa3.2 kmWest (270°)13 km/hRain-ThunderstormHeavy Thunderstorms and Rain
7:38 AM24 °C23 °C94 %1012.5 hPa4.8 kmWNW (300°)11.1 km/hRain-ThunderstormLight Thunderstorms and Rain
7:42 AM24 °C23 °C94 %1012.2 hPa2.9 kmWNW (300°)9.3 km/hRain-ThunderstormHeavy Rain
7:47 AM24 °C23 °C94 %1012.5 hPa1.9 kmNW (310°)11.1 km/hRainRain
7:52 AM24 °C23 °C94 %1012.2 hPa4 kmNW (310°)13 km/hRain-ThunderstormLight Rain
7:57 AM24 °C23 °C94 %1011.9 hPa12.9 kmNW (310°)13 km/hRain-ThunderstormLight Rain
7:58 AM24 °C23.2 °C95 %1011.2 hPa12.9 kmNW (310°)13 km/h12.19 mmRain-ThunderstormLight Rain
8:03 AM24 °C23 °C94 %1011.9 hPa14.5 kmWNW (290°)13 km/hRain-ThunderstormLight Rain
8:13 AM24 °C23 °C94 %1011.5 hPa16.1 kmWNW (290°)7.4 km/hPartly Cloudy
8:58 AM24.8 °C22.8 °C89 %1010.5 hPa16.1 kmNorth (360°)5.6 km/h0 mmClear
9:58 AM27.2 °C24.9 °C87 %1010.5 hPa16.1 kmNNE (20°)11.1 km/hClear
10:58 AM28.5 °C24.9 °C81 %1011.2 hPa16.1 kmESE (110°)11.1 km/hScattered Clouds
11:15 AM28 °C25 °C84 %1011.9 hPa9.7 kmSE (130°)14.8 km/hRainHeavy Rain
11:49 AM27 °C25 °C89 %1011.2 hPa16.1 kmNNE (30°)9.3 km/hPartly Cloudy
11:58 AM27.1 °C25.2 °C89 %1009.8 hPa16.1 kmNNE (20°)13 km/h1.02 mmClear
12:58 PM27.8 °C25.9 °C89 %1008.5 hPa16.1 kmNNE (30°)20.4 km/hScattered Clouds
1:08 PM28 °C26 °C89 %1009.5 hPa16.1 kmNE (40°)20.4 km/hMostly Cloudy
1:28 PM28 °C26 °C89 %1009.1 hPa16.1 kmNNE (30°)18.5 km/hMostly Cloudy
1:48 PM28 °C26 °C89 %1008.8 hPa16.1 kmNE (50°)14.8 km/hMostly Cloudy
1:58 PM28.1 °C25.2 °C84 %1007.8 hPa16.1 kmENE (70°)11.1 km/hScattered Clouds
2:58 PM27.5 °C24.6 °C84 %1008.1 hPa16.1 kmENE (70°)22.2 km/hClear
3:35 PM27 °C25 °C89 %1010.5 hPa16.1 kmNE (40°)27.8 km/hRainLight Rain
3:58 PM26.2 °C25.1 °C94 %1008.8 hPa11.3 kmNE (50°)24.1 km/h0.51 mmRainLight Rain
4:58 PM26.1 °C24.6 °C91 %1007.1 hPa16.1 kmEast (100°)5.6 km/h0.25 mmRainLight Rain
5:37 PM24 °C23 °C94 %1009.1 hPa16.1 kmEast (80°)18.5 km/hClear
5:58 PM23.8 °C22 °C90 %1007.5 hPa16.1 kmESE (110°)24.1 km/h0.25 mmClear
6:58 PM24.2 °C21.5 °C85 %1008.5 hPa16.1 kmEast (90°)13 km/hClear
7:58 PM23.3 °C20.2 °C83 %1009.8 hPa16.1 kmEast (80°)24.1 km/hClear
8:58 PM27 °C25 °C89 %1009.8 hPa16.1 kmENE (70°)20.4 km/hMostly Cloudy
9:13 PM27 °C25 °C89 %1010.8 hPa16.1 kmENE (70°)14.8 km/hScattered Clouds
9:18 PM27 °C25 °C89 %1010.8 hPa16.1 kmENE (70°)20.4 km/hMostly Cloudy
9:43 PM27 °C25 °C89 %1010.8 hPa16.1 kmEast (80°)13 km/hScattered Clouds
9:58 PM26.6 °C25 °C91 %1010.2 hPa16.1 kmEast (100°)9.3 km/hPartly Cloudy
10:43 PM27 °C25 °C89 %1011.5 hPa16.1 kmEast (80°)18.5 km/hMostly Cloudy
10:53 PM27 °C25 °C89 %1011.5 hPa16.1 kmEast (80°)22.2 km/hScattered Clouds
10:58 PM26.7 °C24.9 °C90 %1010.2 hPa16.1 kmEast (80°)18.5 km/hScattered Clouds
11:53 PM27 °C25 °C89 %1011.2 hPa16.1 kmEast (100°)13 km/hMostly Cloudy
11:58 PM27 °C25 °C89 %1009.8 hPa16.1 kmESE (110°)14.8 km/hMostly Cloudy
Hourly data recorded from PGUA, located 0 kilometers away from Umatac, Guam







STORIES FROM OUR PARTNERS